When you browse on this site, cookies collect data to enhance your experience and personalize the content and advertising you see.
Visit our Privacy Policy to learn more. By continuing to use the site, you agree to this use of cookies and data.
  • In United Kingdom
  • List of Countries
  • For 7 days
  • Water Temperature
  • Satellite Maps
  • Weather Map
  • Weather Widgets
  • user-avatar
    Login

    Hourly Weather Ischgl

    Today, 23 April, Tuesday

    Time Temperature Precipitation Wind Pressure Humidity
    00:00 -4°C° 0 mm 3 mps 565 mmHg 88%
    01:00 -4°C° 0 mm 4 mps 564 mmHg 92%
    02:00 -4°C° 0 mm 3 mps 564 mmHg 92%
    03:00 -4°C° 0 mm 3 mps 564 mmHg 91%
    04:00 -4°C° 0 mm 3 mps 563 mmHg 91%
    05:00 -4°C° 0.1 mm 3 mps 563 mmHg 91%
    06:00 -2°C° 0.1 mm 3 mps 563 mmHg 90%
    07:00 -2°C° 0 mm 5 mps 564 mmHg 92%
    08:00 -2°C° 0.1 mm 4 mps 564 mmHg 92%
    09:00 -1°C° 0.1 mm 4 mps 564 mmHg 93%
    10:00 +1°C° 0.1 mm 3 mps 565 mmHg 93%
    11:00 +2°C° 0 mm 3 mps 565 mmHg 92%
    12:00 +2°C° 0 mm 3 mps 565 mmHg 90%
    13:00 +3°C° 0 mm 3 mps 565 mmHg 88%
    14:00 +3°C° 0.1 mm 3 mps 565 mmHg 87%
    15:00 +3°C° 0.1 mm 3 mps 565 mmHg 86%
    16:00 +3°C° 0.1 mm 3 mps 565 mmHg 84%
    17:00 +2°C° 0 mm 3 mps 565 mmHg 87%
    18:00 +1°C° 0 mm 3 mps 564 mmHg 89%
    19:00 -1°C° 0 mm 3 mps 564 mmHg 91%
    20:00 -1°C° 0 mm 3 mps 564 mmHg 91%
    21:00 -2°C° 0 mm 3 mps 564 mmHg 91%
    22:00 -2°C° 0 mm 3 mps 564 mmHg 91%
    23:00 -2°C° 0 mm 3 mps 564 mmHg 91%

    Tomorrow, 24 April, Wednesday

    Time Temperature Precipitation Wind Pressure Humidity
    00:00 -2°C° 0 mm 3 mps 564 mmHg 91%
    01:00 -2°C° 0 mm 3 mps 565 mmHg 91%
    02:00 -2°C° 0.1 mm 3 mps 565 mmHg 90%
    03:00 -2°C° 0.1 mm 3 mps 565 mmHg 90%
    04:00 -2°C° 0.1 mm 3 mps 565 mmHg 89%
    05:00 -2°C° 0 mm 3 mps 566 mmHg 88%
    06:00 -2°C° 0 mm 4 mps 567 mmHg 87%
    07:00 -1°C° 0 mm 4 mps 567 mmHg 85%
    08:00 0°C° 0 mm 4 mps 568 mmHg 82%
    09:00 +1°C° 0 mm 4 mps 569 mmHg 78%
    10:00 +2°C° 0 mm 5 mps 570 mmHg 74%
    11:00 +3°C° 0 mm 5 mps 570 mmHg 72%
    12:00 +3°C° 0 mm 5 mps 570 mmHg 70%
    13:00 +5°C° 0 mm 5 mps 570 mmHg 68%
    14:00 +5°C° 0 mm 5 mps 570 mmHg 69%
    15:00 +5°C° 0 mm 5 mps 570 mmHg 70%
    16:00 +5°C° 0 mm 5 mps 570 mmHg 71%
    17:00 +3°C° 0.1 mm 5 mps 570 mmHg 76%
    18:00 +1°C° 0.1 mm 5 mps 570 mmHg 80%
    19:00 0°C° 0.1 mm 4 mps 569 mmHg 85%
    20:00 -1°C° 0 mm 4 mps 570 mmHg 86%
    21:00 -2°C° 0 mm 4 mps 570 mmHg 88%
    22:00 -2°C° 0 mm 4 mps 570 mmHg 89%
    23:00 -3°C° 0 mm 4 mps 570 mmHg 90%

    Day after tomorrow, 25 April, Thursday

    Time Temperature Precipitation Wind Pressure Humidity
    00:00 -3°C° 0 mm 4 mps 571 mmHg 90%
    01:00 -4°C° 0 mm 4 mps 571 mmHg 91%
    02:00 -4°C° 0 mm 4 mps 570 mmHg 90%
    03:00 -4°C° 0 mm 4 mps 570 mmHg 89%
    04:00 -5°C° 0 mm 4 mps 570 mmHg 88%
    05:00 -4°C° 0 mm 4 mps 570 mmHg 84%
    06:00 -4°C° 0 mm 5 mps 571 mmHg 79%
    07:00 -4°C° 0 mm 5 mps 571 mmHg 74%
    08:00 -1°C° 0 mm 5 mps 572 mmHg 68%
    09:00 +1°C° 0 mm 5 mps 573 mmHg 62%
    10:00 +3°C° 0 mm 5 mps 574 mmHg 56%
    11:00 +5°C° 0 mm 5 mps 574 mmHg 57%
    12:00 +5°C° 0 mm 5 mps 574 mmHg 57%
    13:00 +6°C° 0 mm 5 mps 575 mmHg 58%
    14:00 +6°C° 0 mm 5 mps 575 mmHg 59%
    15:00 +6°C° 0 mm 5 mps 574 mmHg 60%
    16:00 +6°C° 0 mm 5 mps 574 mmHg 61%
    17:00 +5°C° 0 mm 4 mps 573 mmHg 68%
    18:00 +3°C° 0 mm 4 mps 573 mmHg 75%
    19:00 +1°C° 0 mm 4 mps 572 mmHg 83%
    20:00 0°C° 0 mm 4 mps 572 mmHg 85%
    21:00 -1°C° 0 mm 4 mps 571 mmHg 88%
    22:00 -1°C° 0 mm 4 mps 571 mmHg 91%
    23:00 -1°C° 0 mm 4 mps 571 mmHg 90%

    26 April, Friday

    Time Temperature Precipitation Wind Pressure Humidity
    00:00 -2°C° 0 mm 4 mps 571 mmHg 90%
    01:00 -2°C° 0 mm 4 mps 571 mmHg 90%
    02:00 -2°C° 0 mm 4 mps 571 mmHg 90%
    03:00 -3°C° 0 mm 4 mps 571 mmHg 89%
    04:00 -3°C° 0 mm 4 mps 571 mmHg 88%
    05:00 -2°C° 0 mm 4 mps 571 mmHg 83%
    06:00 0°C° 0 mm 3 mps 571 mmHg 78%
    07:00 +1°C° 0 mm 3 mps 572 mmHg 73%
    08:00 +2°C° 0 mm 3 mps 573 mmHg 68%
    09:00 +4°C° 0 mm 4 mps 574 mmHg 62%
    10:00 +5°C° 0 mm 4 mps 575 mmHg 56%
    11:00 +5°C° 0.5 mm 4 mps 574 mmHg 61%
    12:00 +4°C° 0.5 mm 3 mps 574 mmHg 66%
    13:00 +4°C° 0.5 mm 3 mps 574 mmHg 70%
    14:00 +2°C° 1.7 mm 3 mps 573 mmHg 77%
    15:00 +1°C° 1.7 mm 3 mps 572 mmHg 85%
    16:00 -1°C° 1.7 mm 3 mps 571 mmHg 92%
    17:00 -4°C° 2.9 mm 3 mps 571 mmHg 93%
    18:00 -5°C° 2.9 mm 3 mps 570 mmHg 95%
    19:00 -6°C° 2.9 mm 3 mps 570 mmHg 96%
    20:00 -6°C° 1 mm 2 mps 570 mmHg 96%
    21:00 -6°C° 1 mm 2 mps 570 mmHg 96%
    22:00 -6°C° 1 mm 1 mps 570 mmHg 96%
    23:00 -6°C° 0.3 mm 1 mps 570 mmHg 96%

    27 April, Saturday

    Time Temperature Precipitation Wind Pressure Humidity
    00:00 -6°C° 0.3 mm 1 mps 570 mmHg 95%
    01:00 -6°C° 0.3 mm 1 mps 570 mmHg 95%
    02:00 -6°C° 0.5 mm 1 mps 570 mmHg 95%
    03:00 -4°C° 0.5 mm 1 mps 570 mmHg 95%
    04:00 -4°C° 0.5 mm 1 mps 571 mmHg 94%
    05:00 -4°C° 0.6 mm 1 mps 571 mmHg 94%
    06:00 -3°C° 0.6 mm 1 mps 571 mmHg 93%
    07:00 -3°C° 0.6 mm 1 mps 571 mmHg 92%
    08:00 -2°C° 0.5 mm 1 mps 572 mmHg 93%
    09:00 -4°C° 0.5 mm 2 mps 572 mmHg 93%
    10:00 -3°C° 0.5 mm 2 mps 572 mmHg 94%
    11:00 -3°C° 0.2 mm 2 mps 572 mmHg 93%
    12:00 -2°C° 0.2 mm 2 mps 572 mmHg 93%
    13:00 0°C° 0.2 mm 1 mps 572 mmHg 93%
    14:00 -2°C° 0.1 mm 2 mps 572 mmHg 92%
    15:00 -2°C° 0.1 mm 2 mps 572 mmHg 92%
    16:00 -2°C° 0.1 mm 2 mps 572 mmHg 91%
    17:00 -2°C° 0.1 mm 2 mps 572 mmHg 92%
    18:00 -3°C° 0.1 mm 2 mps 572 mmHg 93%
    19:00 -1°C° 0.1 mm 1 mps 571 mmHg 94%
    20:00 -2°C° 0.1 mm 1 mps 571 mmHg 94%
    21:00 -3°C° 0.1 mm 1 mps 571 mmHg 94%
    22:00 -4°C° 0.1 mm 1 mps 571 mmHg 95%
    23:00 -3°C° 0.5 mm 1 mps 571 mmHg 95%

    28 April, Sunday

    Time Temperature Precipitation Wind Pressure Humidity
    00:00 -3°C° 0.5 mm 1 mps 571 mmHg 95%
    01:00 -3°C° 0.5 mm 1 mps 571 mmHg 95%
    02:00 -5°C° 0.4 mm 2 mps 571 mmHg 95%
    03:00 -5°C° 0.4 mm 2 mps 571 mmHg 95%
    04:00 -6°C° 0.4 mm 2 mps 571 mmHg 95%
    05:00 -6°C° 0.5 mm 2 mps 571 mmHg 94%
    06:00 -6°C° 0.5 mm 2 mps 572 mmHg 93%
    07:00 -5°C° 0.5 mm 2 mps 572 mmHg 91%
    08:00 -6°C° 0.4 mm 3 mps 572 mmHg 91%
    09:00 -5°C° 0.4 mm 3 mps 573 mmHg 90%
    10:00 -5°C° 0.4 mm 3 mps 573 mmHg 89%
    11:00 -5°C° 0.5 mm 3 mps 573 mmHg 89%
    12:00 -5°C° 0.5 mm 3 mps 573 mmHg 89%
    13:00 -5°C° 0.5 mm 3 mps 573 mmHg 89%
    14:00 -3°C° 0.2 mm 2 mps 573 mmHg 89%
    15:00 -3°C° 0.2 mm 2 mps 573 mmHg 88%
    16:00 -3°C° 0.2 mm 2 mps 573 mmHg 87%
    17:00 -4°C° 0.1 mm 2 mps 573 mmHg 89%
    18:00 -4°C° 0.1 mm 2 mps 573 mmHg 91%
    19:00 -5°C° 0.1 mm 2 mps 573 mmHg 93%
    20:00 -4°C° 0 mm 1 mps 573 mmHg 94%
    21:00 -4°C° 0 mm 1 mps 573 mmHg 95%
    22:00 -6°C° 0 mm 0 mps 573 mmHg 96%
    23:00 -7°C° 0 mm 1 mps 572 mmHg 95%
    Show more